Volver al catálogo

FENGYUN 1C DEB

ActivoSSO
NORAD 37429·DEBRIS·🇨🇳 China

Lanzado May 10, 1999 desde Taiyuan Satellite Launch Center

Loading…

Próximos Pases (próximas 24 horas)

TLE

EnvejeciendoSource: Space-Track

Época: Sep 10, 2026, 04:19 UTC

1 37429U 99025EGX 26253.18047653  .00000531  00000-0  30967-3 0  9999
2 37429  98.6619 238.0093 0102575 308.8038  50.4007 14.10016285669118

Sigue FENGYUN 1C DEB en tiempo real con AllMySat

Download on the App Store